Wind_Speed
10 14 16 16 15 16 17 17 17 13 13 15 16 16 18 19 19 19 20 20 19 19 20 20 21 21 22
11 11 10 12 14 14 12 12 14 11 12 15 16 17 17 18 18 18 18 19 19 20 21 21 22 23 24
6 8 9 7 6 8 6 7 10 11 11 14 14 16 17 17 17 18 19 19 20 20 21 22 23 24 25
6 6 4 3 6 5 6 7 10 11 14 16 15 14 13 15 19 19 19 19 19 20 20 21 22 23 24
3 2 1 3 6 2 4 7 12 17 13 8 13 17 19 20 20 19 18 18 19 20 22 23 25 26 26
1 2 2 4 2 1 3 7 3 1 14 24 18 21 22 21 20 18 19 20 21 22 23 24 24 25 25
2 2 4 4 6 9 10 8 12 17 18 23 19 25 23 23 21 21 21 21 21 22 22 22 23 24 25
4 4 5 5 4 4 7 10 16 18 12 13 17 26 23 28 28 16 14 14 17 19 21 21 22 24 25
5 6 6 7 7 9 11 12 12 8 16 11 8 20 30 22 12 9 11 17 21 20 21 21 23 24 25
6 5 6 7 7 9 10 9 9 8 3 11 12 12 10 10 8 20 22 27 20 22 22 22 22 23 24
8 7 6 5 5 5 7 8 10 13 15 13 11 20 10 14 20 23 25 29 34 27 24 21 19 19 23
7 7 6 8 8 9 11 13 16 20 23 21 18 19 20 23 22 22 29 31 27 32 23 22 22 21 20
7 7 7 9 11 12 11 12 15 17 19 19 21 24 25 23 26 30 28 27 30 19 29 34 33 31 29
9 10 11 9 10 10 12 13 17 20 19 15 18 20 24 26 29 31 26 17 31 35 35 37 36 32 31
9 10 11 11 12 13 14 16 16 18 21 19 20 21 24 29 29 29 28 29 31 33 29 28 30 28 27
12 12 13 14 16 16 16 16 17 18 20 21 24 22 21 22 24 32 27 28 29 27 27 25 28 28 26
13 14 15 16 15 18 18 18 17 18 20 23 21 17 9 10 23 20 27 30 31 29 26 25 28 31 30
Wind_Direction
180 201 192 206 224 241 254 260 265 272 278 283 285 288 288 286 288 288 287 286 286 285 284 283 284 283 285
184 183 202 221 232 244 256 270 278 289 285 291 294 292 290 289 290 289 287 284 284 284 283 283 283 282 282
158 174 205 207 241 258 273 297 295 292 295 294 295 294 293 295 291 291 289 289 287 283 281 280 280 279 279
135 156 202 210 239 263 284 297 297 299 290 297 298 298 294 295 295 293 291 290 288 285 283 282 281 279 278
125 149 177 220 248 296 293 304 295 304 307 303 299 297 298 305 303 301 297 293 287 284 282 281 280 278 278
316 71 305 292 299 350 330 326 325 332 319 308 321 310 309 314 311 299 295 291 288 286 284 281 280 280 279
290 293 323 334 316 312 308 301 285 304 316 304 309 302 310 309 304 298 298 295 293 289 287 283 282 281 281
268 271 276 295 292 309 318 309 300 300 301 280 300 303 316 310 312 304 303 307 304 300 296 290 286 283 282
287 290 282 278 281 287 290 302 312 314 318 287 316 314 312 317 326 310 303 306 306 306 302 295 289 286 284
308 301 297 298 285 273 280 269 288 311 18 341 315 345 325 304 272 306 311 318 308 308 303 298 295 293 288
315 314 306 299 291 286 288 272 267 263 278 309 297 312 293 297 305 302 312 316 317 321 319 310 303 294 290
310 317 321 316 301 283 274 269 265 271 283 286 279 287 286 290 294 301 309 310 315 314 317 318 310 299 290
314 314 305 298 296 294 297 294 288 287 290 285 286 290 278 272 282 295 303 306 312 310 310 311 312 309 296
309 310 307 310 303 296 292 294 292 295 307 303 297 293 281 276 275 284 292 285 295 302 306 307 306 302 296
309 309 310 308 308 307 299 297 285 289 295 306 311 302 290 287 280 282 287 285 284 286 287 286 295 296 293
301 299 302 304 306 307 304 293 284 284 287 305 308 300 291 285 282 278 281 281 288 294 294 288 293 295 289
302 303 301 300 300 302 300 294 289 288 286 297 298 294 295 290 293 292 293 294 294 292 286 281 285 290 292
Height
799 809 805 805 811 815 816 815 816 815 816 817 817 816 816 816 814 814 814 814 813 811 811 811 810 809 808
801 800 802 804 807 809 811 812 812 812 812 812 812 812 811 810 809 809 809 808 807 807 806 806 805 804 803
798 797 802 804 806 806 806 808 809 810 808 808 809 807 806 805 804 803 803 802 801 801 801 799 798 798 797
797 797 800 802 804 804 803 805 806 805 804 804 803 803 802 801 800 799 797 796 796 795 794 794 792 791 790
796 797 798 800 801 800 801 803 803 802 800 799 799 797 796 795 794 793 792 792 791 790 789 787 786 785 783
796 795 797 798 800 799 800 801 800 798 797 793 794 791 791 790 789 789 789 787 786 784 782 781 779 778 777
795 796 797 798 798 798 799 798 796 796 794 785 790 786 786 785 784 783 782 781 779 778 776 774 772 771 770
795 795 796 797 797 796 795 794 793 792 793 787 785 781 780 778 777 776 776 775 775 773 770 768 766 764 762
794 794 794 794 794 793 793 794 793 791 790 787 782 780 774 770 771 772 772 771 769 766 764 762 759 757 754
792 792 791 791 792 792 792 792 794 791 788 787 782 781 775 767 767 768 765 764 762 760 757 754 751 749 745
791 790 790 791 790 790 790 791 792 790 788 789 782 782 781 772 763 762 759 756 753 750 748 745 744 742 739
791 790 790 789 789 789 788 788 788 786 785 786 782 780 777 771 763 756 754 750 747 743 741 739 737 735 734
789 789 788 788 787 785 784 784 783 782 781 780 778 774 772 767 759 753 749 742 741 738 735 731 728 726 722
788 787 786 785 785 784 782 781 779 776 776 774 772 769 765 761 755 746 746 744 735 731 728 723 719 717 714
787 786 784 783 782 781 779 777 776 772 769 768 766 763 758 754 747 742 738 734 730 725 723 717 712 710 706
784 783 782 780 779 777 776 774 771 768 765 762 759 755 750 745 742 733 731 726 721 719 716 711 705 701 699
781 780 778 776 775 773 771 769 766 763 760 758 754 751 745 738 734 733 726 721 716 711 708 705 698 692 690